User: anonymous   Login
Location: La Tine
(46.4708°N, 7.0525°E)
Time: 12:12:21
(UTC+00:00)
Language:

SJ-11-01 - Orbit

View from above orbital plane
View from above orbital plane
View from above satellite
View from above satellite

Ground track
Ground track

The orbit data is extracted from the following two-line orbital elements,

1 36088U 09061A   21135.96823296 -.00000037  00000-0  15806-5 0  9994
2 36088  97.9553 162.4105 0013187 110.6781 249.5861 14.60214609613130
Epoch (UTC): 15 May 2021 23:14:15
Eccentricity: 0.0013187
inclination: 97.9553°
perigee height: 683 km
apogee height: 702 km
right ascension of ascending node: 162.4105°
argument of perigee: 110.6781°
revolutions per day: 14.60214609
mean anomaly at epoch: 249.5861°
orbit number at epoch: 61313

The dashed part of the orbit path shows where the satellite is in the earth's shadow,  

DLR